{"data":{"norad_id":69569,"epoch":"2026-09-19T20:04:58.566144Z","epoch_age_seconds":78987,"freshness":"FRESH","line1":"1 69569U 26135Z   26262.83678896  .00012468  00000+0  38775-3 0  9998","line2":"2 69569  97.2846 290.6100 0001782 117.8242 242.3181 15.33454569 14904","mean_motion":15.33454569,"eccentricity":0.0001782,"inclination_deg":97.2846,"raan_deg":290.61,"arg_perigee_deg":117.8242,"mean_anomaly_deg":242.3181,"bstar":0.00038775,"rev_number":1490,"period_min":93.905618667207,"perigee_km":464.29516528089,"apogee_km":466.7342427482,"semimajor_km":6843.6517040145,"source":"CELESTRAK","updated_at":"2026-09-20T09:00:44.246489Z"}}